Погода в Калашниково

Россия / Тверская область     57°16′53″N   35°13′34″E
темп.,
°C
ветер,
м/с
пор.,
м/с
влажн.,
%
обл.,
%
осадки,
мм/ч
давл.,
гПа
погр.,
м
21 апреля, ср
ср2100:00+4всв3796100 0.6 1014891
03:00+3всв3797100 1.9 1011615
06:00+2ссв3799100 2.3 1007346
09:00+1ссв2499100 5.2 1005192
12:00+2з1299100 1.1 1003156
15:00+3зюз3791100 1.2 1004834
18:00+3юз3891100 0.2 1006712
21:00+3ююз389584 0.3 1007221
22 апреля, чт
чт2200:00+4ююз4119374 0.2 1008438
03:00+2ю3109663 0.2 1008271
06:00+2ю31297100 0.1 1009360
09:00+6ююз4886100 0.3 1009513
12:00+11ююз576769 0.2 1010898
15:00+14юз474955 0.6 10102155
18:00+12ю485923 0.0 1010530
21:00+8ююв4128346 0.0 1010367
23 апреля, пт
пт2300:00+7ююв4129469 0.1 1010359
03:00+6ююв4129660 0.1 1009385
06:00+7юз4894100 0.2 1009633
09:00+7ю3687100 0.4 1010398
12:00+5зюз4794100 1.4 1012725
15:00+8юз466588 2.3 10121292
18:00+8ю2464100 0.0 1011400
21:00+5юв3894100 0.1 1012258
24 апреля, сб
сб2400:00+4ююв2596100 0.3 1011247
03:00+4сз1293100 1.8 1009312
06:00+3сз3597100 1.9 1008425
09:00+3сз3691100 2.8 1007555
12:00+4зсз4687100 0.8 1007741
15:00+5зсз3667100 1.5 10061261
18:00+6зсз246897 0.2 1005743
21:00+2з228184 0.4 100637
25 апреля, вс
вс2500:000зюз278726 0.0 1005137
03:00−1зюз28945 0.0 1005203
06:000ююз299773 0.0 1005425
09:00+2зюз4895100 0.4 1004564
12:00+3юз469297 0.9 1005573
15:00+5зюз576695 2.1 10051525
18:00+5зюз46705 0.8 10051025
21:00+1юз24915 1.0 100674